Weather in Krivodanovka

Russia / Novosibirsk Oblast     55°04′54″N   82°39′42″E
temp.,
°C
wind,
m/s
gust,
m/s
humid.,
%
clouds,
%
prec.,
mm/h
press.,
hPa
HPBL,
m
28 september, tue
tue2801:00+4ne37759 0.1 1024196
04:00+1nne35835 0.0 102270
07:000ne22935 0.0 102339
10:00+4ne35732 0.0 1022343
13:00+8ene34507 0.0 10211437
16:00+9ne334376 0.0 10201604
19:00+5ne4859100 0.0 1020185
22:00+4ene366536 0.0 1020112
29 september, wed
wed2901:00+2ene37738 0.0 1018118
04:00+1ene3978100 0.0 1016172
07:00+2ene41080100 0.0 1014227
10:00+5e5965100 0.0 1012429
13:00+5e6979100 0.7 1011737
16:00+4ene61189100 2.3 1010668
19:00+4ene3692100 2.9 1009325
22:00+5ssw5894100 0.3 1009540
30 september, thu
thu3001:00+4ssw5797100 0.4 1009624
04:00+3sw5797100 0.4 1009627
07:00+3wsw5896100 1.1 1010513
10:00+2w6997100 0.4 1011460
13:00+3w4899100 1.0 1013573
16:00+3w4997100 1.1 1014575
19:00+4w258799 1.5 1014274
22:00+4w3784100 0.1 1014238
1 october, fri
fri101:00+3wsw3588100 0.1 1013129
04:00+1wsw349299 0.0 101285
07:00+1wnw259732 0.0 1011217
10:00+2wnw348282 0.0 1011380
13:00+4w5667100 0.2 10101151
16:00+5wnw5667100 0.3 10111147
19:00+3w4775100 0.4 1012375
22:00+2sw4884100 0.0 1013363
2 october, sat
sat201:00+2sw4797100 0.1 1014395
04:00+2wsw3798100 0.1 1014421
07:00+2sw4997100 0.4 1015562
10:00+2wnw4799100 0.7 1016391
13:00+3wnw4567100 0.8 10181235
16:00+4wnw6762100 0.1 10201228
19:00+2w4677100 0.3 1022304
22:00+1wsw4881100 0.1 1023463